Location: Bessat
(45.8735°N, 1.9924°E)
Time: 23:00:18
(UTC+00:00)

OBJECT-B - Pass Details

Date: 11 May 2021
Orbit: 414 x 423 km, 97.0° (Epoch: 05 June)

Event Time Altitude Azimuth Distance (km) Brightness Sun altitude
Rises 19:41:38 0° 171° (S) 2,369 4.2 -5.2°
Reaches altitude 10° 19:43:37 10° 173° (S) 1,511 3.2 -5.5°
Maximum altitude 19:46:51 73° 258° (WSW) 451 1.0 -6.0°
Drops below altitude 10° 19:50:07 10° 344° (NNW) 1,526 4.4 -6.4°
Sets 19:52:08 0° 347° (NNW) 2,398 5.4 -6.7°
